883  
ASUS45 KPSR 290010  
RWRAZ  
 
ARIZONA HOURLY REGIONAL WEATHER ROUNDUP  
NATIONAL WEATHER SERVICE PHOENIX AZ  
500 PM MST WED FEB 28 2024  
 
NOTE: FAIR INDICATES FEW OR NO CLOUDS BELOW 12,000 FEET WITH NO  
SIGNIFICANT WEATHER AND/OR S TO VISIBILITY
.  
 
AZZ001>003-036-290100-  
NORTHWEST ARIZONA  
 
CITY SKY/WX TMP DP RH WIND PRES REMARKS
 
BULLHEAD CITY SUNNY 73 12 9 N16 29.94F TC 23  
KINGMAN SUNNY 65 23 20 CALM 29.99F TC 18  
6HR MIN TEMP: 57; 6HR MAX TEMP: 66;  
 

 
 
AZZ004>008-015-016-018-290100-  
NORTH CENTRAL ARIZONA  
 
CITY SKY/WX TMP DP RH WIND PRES REMARKS
 
GRAND CANYON SUNNY 49 12 22 NE13 30.09S TC 9  
6HR MIN TEMP: 44; 6HR MAX TEMP: 52;  
 
WILLIAMS SUNNY 52 16 24 S7 30.06F TC 11  
PRESCOTT SUNNY 58 17 20 VRB3 30.02S TC 14  
6HR MIN TEMP: 52; 6HR MAX TEMP: 60;  
 
FLAGSTAFF SUNNY 48 15 26 E9 30.09S TC 9  
6HR MIN TEMP: 41; 6HR MAX TEMP: 50;  
 
PAYSON PTSUNNY 57 27 30 VRB5 30.03S TC 14  
PAGE SUNNY 53 4 13 NE5 30.09F TC 12  
6HR MIN TEMP: 45; 6HR MAX TEMP: 53;  
 

 
 
AZZ009>014-017-290100-  
NORTHEAST ARIZONA  
 
CITY SKY/WX TMP DP RH WIND PRES REMARKS
 
WINSLOW SUNNY 58 12 16 NW7 30.06F TC 14  
6HR MIN TEMP: 46; 6HR MAX TEMP: 58;  
 
WINDOW ROCK SUNNY 48 0 13 NE10 30.09S TC 9  
6HR MIN TEMP: 42; 6HR MAX TEMP: 50;  
 
SHOW LOW PTSUNNY 52 16 24 NW13 30.05S TC 11  

 
 
AZZ540-542>544-546-548-290100-  
GREATER PHOENIX AREA  
 
CITY SKY/WX TMP DP RH WIND PRES REMARKS
 
PHOENIX CLOUDY 68 43 40 S22G35 29.88R TC 20  
6HR MIN TEMP: 68; 6HR MAX TEMP: 80;  
 
BUCKEYE SUNNY 77 36 22 W6 29.89F TC 25  
LUKE AFB PTSUNNY 76 32 20 CALM 29.86F TC 24  
6HR MIN TEMP: 71; 6HR MAX TEMP: 79;  
 
DEER VALLEY CLOUDY 73 34 23 VRB3 29.89F TC 23  
6HR MIN TEMP: 70; 6HR MAX TEMP: 75;  
 
SCOTTSDALE CLOUDY 74 34 23 VRB3 29.90S TC 23  
6HR MIN TEMP: 70; 6HR MAX TEMP: 77;  
 
MESA-FALCON CLOUDY 63 47 55 S15G25 29.91R TC 17  
6HR MIN TEMP: 63; 6HR MAX TEMP: 76;  
 
MESA-GATEWAY PTSUNNY 61 48 63 S16G23 29.93S TC 16  
CHANDLER PTSUNNY 63 46 55 S21 29.91S TC 17  

 
 
AZZ539-553-290100-  
SOUTHWEST MARICOPA COUNTY AND PINAL COUNTY  
 
CITY SKY/WX TMP DP RH WIND PRES REMARKS
 
CASA GRANDE LGT RAIN 58 49 72 SE14G21 29.95F TC 14  
6HR MIN TEMP: 57; 6HR MAX TEMP: 69;  
 
GILA BEND PTSUNNY 73 46 37 SW8 29.91S TC 23  
6HR MIN TEMP: 69; 6HR MAX TEMP: 74;  
 

 
 
AZZ503-504-507>509-290100-  
SOUTHEAST ARIZONA  
 
CITY SKY/WX TMP DP RH WIND PRES REMARKS
 
TUCSON CLOUDY 56 48 74 E7 29.98R TC 13  
6HR MIN TEMP: 54; 6HR MAX TEMP: 67; 6HR PCP: 0.14;  
 
DAVIS-MONTHAN CLOUDY 54 49 84 E6 29.95R TC 12  
6HR MIN TEMP: 54; 6HR MAX TEMP: 66; 6HR PCP: 0.24;  
 
RYAN FIELD PTSUNNY 55 50 82 SE5 29.96R TC 13  
NOGALES LGT RAIN 52 45 77 W9 29.97R TC 11  
6HR MIN TEMP: 50; 6HR MAX TEMP: 64; 6HR PCP: 0.15;  
 
SIERRA VISTA LGT RAIN 50 45 81 W5 29.99 TC 10  
6HR MIN TEMP: 49; 6HR MAX TEMP: 66; 6HR PCP: 0.08;  
 
DOUGLAS HVY RAIN 50 47 89 W13G28 29.95R FOG TC 10  
6HR MIN TEMP: 50; 6HR MAX TEMP: 67; 6HR PCP: 0.09;  
 
SAFFORD CLOUDY 54 46 74 SW15 29.92R TC 12  
6HR MIN TEMP: 55; 6HR MAX TEMP: 70; 6HR PCP: 0.09;  
 

 
 
AZZ532-290100-  
SOUTHWEST ARIZONA  
 
CITY SKY/WX TMP DP RH WIND PRES REMARKS
 
YUMA MOSUNNY 78 39 24 NW8 29.89F TC 26  
6HR MIN TEMP: 67; 6HR MAX TEMP: 79;  
 

 
 
CAZ041-043-047-048-061-525>527-560>570-290100-  
SOUTHERN CALIFORNIA  
 
CITY SKY/WX TMP DP RH WIND PRES REMARKS
 
DOWNTOWN L.A. SUNNY 66 51 58 VRB7 30.01S TC 19  
6HR MIN TEMP: 64; 6HR MAX TEMP: 69;  
 
L.A. AIRPORT MOSUNNY 61 55 81 W15 30.01F TC 16  
6HR MIN TEMP: 61; 6HR MAX TEMP: 64;  
 
SAN DIEGO PTSUNNY 64 55 72 NW9 30.04R TC 18  
6HR MIN TEMP: 62; 6HR MAX TEMP: 65;  
 
BURBANK SUNNY 68 52 56 S9 29.99S TC 20  
6HR MIN TEMP: 60; 6HR MAX TEMP: 71;  
 
ONTARIO MOSUNNY 70 42 36 W12 29.98S TC 21  
6HR MIN TEMP: 60; 6HR MAX TEMP: 72;  
 
RIVERSIDE SUNNY 70 50 49 W14 29.98S TC 21  
6HR MIN TEMP: 62; 6HR MAX TEMP: 72;  
 
PALM SPRINGS SUNNY 81 31 16 CALM 29.93S TC 27  
6HR MIN TEMP: 76; 6HR MAX TEMP: 83;  
 
EL CENTRO NAS MOSUNNY 80 28 15 W9 29.92F TC 27  
6HR MIN TEMP: 75; 6HR MAX TEMP: 82;  
 
BLYTHE SUNNY 79 33 19 N8 29.91F TC 26  
6HR MIN TEMP: 70; 6HR MAX TEMP: 79;  
 
NEEDLES SUNNY 75 20 12 NW9 29.95F TC 24  
6HR MIN TEMP: 66; 6HR MAX TEMP: 75;  
 

 
 
NVZ020-UTZ003-290100-  
SOUTHERN NEVADA-UTAH  
 
CITY SKY/WX TMP DP RH WIND PRES REMARKS
 
LAS VEGAS SUNNY 64 12 13 CALM 30.01F TC 18  
6HR MIN TEMP: 55; 6HR MAX TEMP: 66;  
 
SALT LAKE CITY SUNNY 48 15 26 VRB5 30.09F TC 9  
6HR MIN TEMP: 36; 6HR MAX TEMP: 49;  
 

 
 
NMZ009-TXZ055-290100-  
NEW MEXICO-WEST TEXAS  
 
CITY SKY/WX TMP DP RH WIND PRES REMARKS
 
ALBUQUERQUE MOSUNNY 58 14 17 CALM 30.10F TC 14  
6HR MIN TEMP: 45; 6HR MAX TEMP: 58;  
 
EL PASO PTSUNNY 51 28 41 E15G23 30.12S TC 11  
6HR MIN TEMP: 51; 6HR MAX TEMP: 56;  
 

 
 
   
.......................KEY.....................
 
 
SKY/WX - SKY CONDITION/WEATHER  
TMP - TEMPERATURE IN FAHRENHEIT  
DP - DEW POINT IN FAHRENHEIT  
RH - RELATIVE HUMIDITY IN PERCENT  
WIND - DIRECTION AND SPEED IN MILES PER HOUR (MPH)  
VRB - VARIABLE WIND DIRECTION  
PRES - MEAN SEA LEVEL PRESSURE IN INCHES OF MERCURY  
F - FALLING PRESSURE R - RISING PRESSURE  
S - STEADY PRESSURE  
VSB - VISIBILITY IN MILES  
HX - HEAT INDEX IN FAHRENHEIT  
WCI - WIND CHILL INDEX IN FAHRENHEIT  
TC - TEMPERATURE IN CELSIUS WHICH IS ALSO KNOWN AS  
TEMPERATURE IN CENTIGRADE  
AFB - AIR FORCE BASE  
LUKE AFB IS LUKE AIR FORCE BASE  
DAVIS-MONTHAN IS DAVIS-MONTHAN AIR FORCE BASE  
NAS - NAVAL AIR STATION  
EL CENTRO NAS IS EL CENTRO NAVAL AIR STATION  
N/A - NOT AVAILABLE  
 
 
 
CLICK HERE TO GO TO PREVIOUS BULLETINS.

The Nexlab AZ Page Main Text Page